Time,TemperatureF,DewpointF,PressureIn,WindDirection,WindDirectionDegrees,WindSpeedMPH,WindSpeedGustMPH,Humidity,HourlyPrecipIn,Conditions,Clouds,dailyrainin,SolarRadiationWatts/m^2,SoftwareType,DateUTC
2013-02-12 00:01:00,28.0,24.0,-100.00,NNW,348,2.0,2.0,84,0.00,,,0.00,0.000000,,2013-02-12 07:01:00,
2013-02-12 00:11:00,28.0,24.0,-100.00,NNW,348,2.0,2.0,84,0.00,,,0.00,0.000000,,2013-02-12 07:11:00,
2013-02-12 00:42:00,28.0,24.0,-100.00,NE,39,1.0,3.0,85,0.00,,,0.00,0.000000,,2013-02-12 07:42:00,
2013-02-12 00:52:00,28.0,24.0,-100.00,NE,39,1.0,3.0,85,0.00,,,0.00,0.000000,,2013-02-12 07:52:00,
2013-02-12 01:01:00,28.0,24.0,-100.00,NE,39,1.0,3.0,85,0.00,,,0.00,0.000000,,2013-02-12 08:01:00,
2013-02-12 01:11:00,28.0,24.0,-100.00,NE,39,1.0,3.0,85,0.00,,,0.00,0.000000,,2013-02-12 08:11:00,
2013-02-12 01:42:00,27.0,23.0,-100.00,NE,44,1.0,3.0,86,0.00,,,0.00,0.000000,,2013-02-12 08:42:00,
2013-02-12 01:52:00,27.0,23.0,-100.00,NE,44,1.0,3.0,86,0.00,,,0.00,0.000000,,2013-02-12 08:52:00,
2013-02-12 02:01:00,27.0,23.0,-100.00,NE,44,1.0,3.0,86,0.00,,,0.00,0.000000,,2013-02-12 09:01:00,
2013-02-12 02:11:00,27.0,23.0,-100.00,NE,44,1.0,3.0,86,0.00,,,0.00,0.000000,,2013-02-12 09:11:00,
2013-02-12 02:42:00,27.0,24.0,-100.00,NE,53,1.0,2.0,88,0.00,,,0.00,0.000000,,2013-02-12 09:42:00,
2013-02-12 02:52:00,27.0,24.0,-100.00,NE,53,1.0,2.0,88,0.00,,,0.00,0.000000,,2013-02-12 09:52:00,
2013-02-12 03:01:00,27.0,24.0,-100.00,NE,53,1.0,2.0,88,0.00,,,0.00,0.000000,,2013-02-12 10:01:00,
2013-02-12 03:11:00,27.0,24.0,-100.00,NE,53,1.0,2.0,88,0.00,,,0.00,0.000000,,2013-02-12 10:11:00,
2013-02-12 03:43:00,27.0,24.0,-100.00,NNW,330,2.0,3.0,88,0.00,,,0.00,0.000000,,2013-02-12 10:43:00,
2013-02-12 03:52:00,27.0,24.0,-100.00,NNW,330,2.0,3.0,88,0.00,,,0.00,0.000000,,2013-02-12 10:52:00,
2013-02-12 04:01:00,27.0,24.0,-100.00,NNW,330,2.0,3.0,88,0.00,,,0.00,0.000000,,2013-02-12 11:01:00,
2013-02-12 04:11:00,27.0,24.0,-100.00,NNW,330,2.0,3.0,88,0.00,,,0.00,0.000000,,2013-02-12 11:11:00,
2013-02-12 04:42:00,27.0,25.0,-100.00,NNE,25,1.0,2.0,91,0.00,,,0.00,0.000000,,2013-02-12 11:42:00,
2013-02-12 04:52:00,27.0,25.0,-100.00,NNE,25,1.0,2.0,91,0.00,,,0.00,0.000000,,2013-02-12 11:52:00,
2013-02-12 05:01:00,27.0,25.0,-100.00,NNE,25,1.0,2.0,91,0.00,,,0.00,0.000000,,2013-02-12 12:01:00,
2013-02-12 05:11:00,27.0,25.0,-100.00,NNE,25,1.0,2.0,91,0.00,,,0.00,0.000000,,2013-02-12 12:11:00,
2013-02-12 05:32:00,27.0,25.0,-100.00,ENE,68,0.0,2.0,92,0.00,,,0.00,0.000000,,2013-02-12 12:32:00,
2013-02-12 05:42:00,27.0,25.0,-100.00,ENE,68,0.0,2.0,92,0.00,,,0.00,0.000000,,2013-02-12 12:42:00,
2013-02-12 05:52:00,27.0,25.0,-100.00,ENE,68,0.0,2.0,92,0.00,,,0.00,0.000000,,2013-02-12 12:52:00,
2013-02-12 06:01:00,27.0,25.0,-100.00,ENE,68,0.0,2.0,92,0.00,,,0.00,0.000000,,2013-02-12 13:01:00,
2013-02-12 06:11:00,27.0,25.0,-100.00,ENE,68,0.0,2.0,92,0.00,,,0.00,0.000000,,2013-02-12 13:11:00,
2013-02-12 06:42:00,27.0,25.0,-100.00,ENE,63,1.0,2.0,93,0.00,,,0.00,0.000000,,2013-02-12 13:42:00,
2013-02-12 06:52:00,27.0,25.0,-100.00,ENE,63,1.0,2.0,93,0.00,,,0.00,0.000000,,2013-02-12 13:52:00,
2013-02-12 07:01:00,27.0,25.0,-100.00,ENE,63,1.0,2.0,93,0.00,,,0.00,0.000000,,2013-02-12 14:01:00,
2013-02-12 07:11:00,27.0,25.0,-100.00,ENE,63,1.0,2.0,93,0.00,,,0.00,0.000000,,2013-02-12 14:11:00,
2013-02-12 07:32:00,27.0,25.0,-100.00,North,1,1.0,3.0,92,0.00,,,-99.99,0.000000,,2013-02-12 14:32:00,
2013-02-12 07:42:00,27.0,25.0,-100.00,North,1,1.0,3.0,92,0.00,,,-99.99,0.000000,,2013-02-12 14:42:00,
2013-02-12 07:52:00,27.0,25.0,-100.00,North,1,1.0,3.0,92,0.00,,,-99.99,0.000000,,2013-02-12 14:52:00,
2013-02-12 08:01:00,27.0,25.0,-100.00,North,1,1.0,3.0,92,0.00,,,-99.99,0.000000,,2013-02-12 15:01:00,
2013-02-12 08:11:00,27.0,25.0,-100.00,North,1,1.0,3.0,92,0.00,,,-99.99,0.000000,,2013-02-12 15:11:00,
2013-02-12 08:42:00,28.0,26.0,-100.00,West,269,1.0,4.0,91,0.00,,,0.00,1.000000,,2013-02-12 15:42:00,
2013-02-12 08:52:00,28.0,26.0,-100.00,West,269,1.0,4.0,91,0.00,,,0.00,1.000000,,2013-02-12 15:52:00,
2013-02-12 09:01:00,28.0,26.0,-100.00,West,269,1.0,4.0,91,0.00,,,0.00,1.000000,,2013-02-12 16:01:00,
2013-02-12 09:11:00,28.0,26.0,-100.00,West,269,1.0,4.0,91,0.00,,,0.00,1.000000,,2013-02-12 16:11:00,
2013-02-12 09:32:00,29.0,27.0,-100.00,ENE,72,0.0,3.0,91,0.00,,,0.00,20.000000,,2013-02-12 16:32:00,
2013-02-12 09:42:00,29.0,27.0,-100.00,ENE,72,0.0,3.0,91,0.00,,,0.00,20.000000,,2013-02-12 16:42:00,
2013-02-12 09:52:00,29.0,27.0,-100.00,ENE,72,0.0,3.0,91,0.00,,,0.00,20.000000,,2013-02-12 16:52:00,
2013-02-12 10:01:00,29.0,27.0,-100.00,ENE,72,0.0,3.0,91,0.00,,,0.00,20.000000,,2013-02-12 17:01:00,
2013-02-12 10:11:00,29.0,27.0,-100.00,ENE,72,0.0,3.0,91,0.00,,,0.00,20.000000,,2013-02-12 17:11:00,
2013-02-12 10:42:00,32.0,27.0,-100.00,ESE,115,1.0,3.0,82,0.00,,,0.00,44.000000,,2013-02-12 17:42:00,
2013-02-12 10:52:00,32.0,27.0,-100.00,ESE,115,1.0,3.0,82,0.00,,,0.00,44.000000,,2013-02-12 17:52:00,
2013-02-12 11:01:00,32.0,27.0,-100.00,ESE,115,1.0,3.0,82,0.00,,,0.00,44.000000,,2013-02-12 18:01:00,
2013-02-12 11:11:00,32.0,27.0,-100.00,ESE,115,1.0,3.0,82,0.00,,,0.00,44.000000,,2013-02-12 18:11:00,
2013-02-12 11:42:00,33.0,27.0,-100.00,SSW,202,3.0,10.0,77,0.00,,,0.00,75.000000,,2013-02-12 18:42:00,
2013-02-12 11:52:00,33.0,27.0,-100.00,SSW,202,3.0,10.0,77,0.00,,,0.00,75.000000,,2013-02-12 18:52:00,
2013-02-12 12:02:00,33.0,27.0,-100.00,SSW,202,3.0,10.0,77,0.00,,,0.00,75.000000,,2013-02-12 19:02:00,
2013-02-12 12:11:00,33.0,27.0,-100.00,SSW,202,3.0,10.0,77,0.00,,,0.00,75.000000,,2013-02-12 19:11:00,
2013-02-12 12:42:00,35.0,28.0,-100.00,SSW,201,4.0,9.0,74,0.00,,,-99.99,177.000000,,2013-02-12 19:42:00,
2013-02-12 12:52:00,35.0,28.0,-100.00,SSW,201,4.0,9.0,74,0.00,,,-99.99,177.000000,,2013-02-12 19:52:00,
2013-02-12 13:01:00,35.0,28.0,-100.00,SSW,201,4.0,9.0,74,0.00,,,-99.99,177.000000,,2013-02-12 20:01:00,
2013-02-12 13:11:00,35.0,28.0,-100.00,SSW,201,4.0,9.0,74,0.00,,,-99.99,177.000000,,2013-02-12 20:11:00,
2013-02-12 13:42:00,36.0,26.0,-100.00,SSW,212,5.0,9.0,68,0.00,,,-99.99,131.000000,,2013-02-12 20:42:00,
2013-02-12 13:52:00,36.0,26.0,-100.00,SSW,212,5.0,9.0,68,0.00,,,-99.99,131.000000,,2013-02-12 20:52:00,
2013-02-12 14:01:00,36.0,26.0,-100.00,SSW,212,5.0,9.0,68,0.00,,,-99.99,131.000000,,2013-02-12 21:01:00,
2013-02-12 14:11:00,36.0,26.0,-100.00,SSW,212,5.0,9.0,68,0.00,,,-99.99,131.000000,,2013-02-12 21:11:00,
2013-02-12 14:42:00,36.0,24.0,-100.00,SW,217,6.0,12.0,61,0.00,,,0.00,190.000000,,2013-02-12 21:42:00,
2013-02-12 14:52:00,36.0,24.0,-100.00,SW,217,6.0,12.0,61,0.00,,,0.00,190.000000,,2013-02-12 21:52:00,
2013-02-12 15:01:00,36.0,24.0,-100.00,SW,217,6.0,12.0,61,0.00,,,0.00,190.000000,,2013-02-12 22:01:00,
2013-02-12 15:12:00,36.0,24.0,-100.00,SW,217,6.0,12.0,61,0.00,,,0.00,190.000000,,2013-02-12 22:12:00,
2013-02-12 15:42:00,35.0,24.0,-100.00,SSW,197,5.0,12.0,64,0.00,,,0.00,105.000000,,2013-02-12 22:42:00,
2013-02-12 15:52:00,35.0,24.0,-100.00,SSW,197,5.0,12.0,64,0.00,,,0.00,105.000000,,2013-02-12 22:52:00,
2013-02-12 16:01:00,35.0,24.0,-100.00,SSW,197,5.0,12.0,64,0.00,,,0.00,105.000000,,2013-02-12 23:01:00,
2013-02-12 16:11:00,35.0,24.0,-100.00,SSW,197,5.0,12.0,64,0.00,,,0.00,105.000000,,2013-02-12 23:11:00,
2013-02-12 16:42:00,35.0,23.0,-100.00,SW,214,5.0,11.0,62,0.00,,,0.00,56.000000,,2013-02-12 23:42:00,
2013-02-12 16:52:00,35.0,23.0,-100.00,SW,214,5.0,11.0,62,0.00,,,0.00,56.000000,,2013-02-12 23:52:00,
2013-02-12 17:02:00,35.0,23.0,-100.00,SW,214,5.0,11.0,62,0.00,,,0.00,56.000000,,2013-02-13 00:02:00,
2013-02-12 17:11:00,35.0,23.0,-100.00,SW,214,5.0,11.0,62,0.00,,,0.00,56.000000,,2013-02-13 00:11:00,
2013-02-12 17:42:00,35.0,24.0,-100.00,SSW,212,5.0,12.0,63,0.00,,,0.00,42.000000,,2013-02-13 00:42:00,
2013-02-12 17:52:00,35.0,24.0,-100.00,SSW,212,5.0,12.0,63,0.00,,,0.00,42.000000,,2013-02-13 00:52:00,
2013-02-12 18:01:00,35.0,24.0,-100.00,SSW,212,5.0,12.0,63,0.00,,,0.00,42.000000,,2013-02-13 01:01:00,
2013-02-12 18:11:00,35.0,24.0,-100.00,SSW,212,5.0,12.0,63,0.00,,,0.00,42.000000,,2013-02-13 01:11:00,
2013-02-12 19:42:00,34.0,24.0,-100.00,SSW,196,6.0,16.0,67,-99.99,,,0.00,0.000000,,2013-02-13 02:42:00,
2013-02-12 19:52:00,34.0,24.0,-100.00,SSW,196,6.0,16.0,67,-99.99,,,0.00,0.000000,,2013-02-13 02:52:00,
2013-02-12 20:01:00,34.0,24.0,-100.00,SSW,196,6.0,16.0,67,-99.99,,,0.00,0.000000,,2013-02-13 03:01:00,
2013-02-12 20:11:00,34.0,24.0,-100.00,SSW,196,6.0,16.0,67,-99.99,,,0.00,0.000000,,2013-02-13 03:11:00,
2013-02-12 20:42:00,34.0,25.0,-100.00,SSW,201,5.0,14.0,69,0.00,,,0.00,0.000000,,2013-02-13 03:42:00,
2013-02-12 20:52:00,34.0,25.0,-100.00,SSW,201,5.0,14.0,69,0.00,,,0.00,0.000000,,2013-02-13 03:52:00,
2013-02-12 21:01:00,34.0,25.0,-100.00,SSW,201,5.0,14.0,69,0.00,,,0.00,0.000000,,2013-02-13 04:01:00,
2013-02-12 21:11:00,34.0,25.0,-100.00,SSW,201,5.0,14.0,69,0.00,,,0.00,0.000000,,2013-02-13 04:11:00,
2013-02-12 21:42:00,35.0,27.0,-100.00,SW,219,7.0,14.0,71,0.00,,,0.00,0.000000,,2013-02-13 04:42:00,
2013-02-12 21:52:00,35.0,27.0,-100.00,SW,219,7.0,14.0,71,0.00,,,0.00,0.000000,,2013-02-13 04:52:00,
2013-02-12 22:01:00,35.0,27.0,-100.00,SW,219,7.0,14.0,71,0.00,,,0.00,0.000000,,2013-02-13 05:01:00,
2013-02-12 22:11:00,35.0,27.0,-100.00,SW,219,7.0,14.0,71,0.00,,,0.00,0.000000,,2013-02-13 05:11:00,
2013-02-12 22:32:00,35.0,26.0,-100.00,SW,220,4.0,11.0,70,0.00,,,0.00,0.000000,,2013-02-13 05:32:00,
2013-02-12 22:42:00,35.0,26.0,-100.00,SW,220,4.0,11.0,70,0.00,,,0.00,0.000000,,2013-02-13 05:42:00,
2013-02-12 22:52:00,35.0,26.0,-100.00,SW,220,4.0,11.0,70,0.00,,,0.00,0.000000,,2013-02-13 05:52:00,
2013-02-12 23:02:00,35.0,26.0,-100.00,SW,220,4.0,11.0,70,0.00,,,0.00,0.000000,,2013-02-13 06:02:00,
2013-02-12 23:11:00,35.0,26.0,-100.00,SW,220,4.0,11.0,70,0.00,,,0.00,0.000000,,2013-02-13 06:11:00,
2013-02-12 23:32:00,35.0,26.0,-100.00,SSW,194,3.0,18.0,70,0.00,,,0.00,0.000000,,2013-02-13 06:32:00,
2013-02-12 23:42:00,35.0,26.0,-100.00,SSW,194,3.0,18.0,70,0.00,,,0.00,0.000000,,2013-02-13 06:42:00,
2013-02-12 23:52:00,35.0,26.0,-100.00,SSW,194,3.0,18.0,70,0.00,,,0.00,0.000000,,2013-02-13 06:52:00,